N9AZZ Weather Reports


time (UTC)temp
C
wind
direction
speed
KPH
gust
KPH
rain 1hr
cm
rain 24hr
cm
rain mn
cm
humidity
%
barometer
mb
20260504130511 17 218 1.6 8.0 0.00 0.00 0.00 75 1011.0
20260504110509 15 0 0.0 0.0 0.00 0.00 0.00 77 1010.8
20260504100510 16 117 0.0 4.8 0.00 0.00 0.00 73 1010.6
20260504081530 16 234 0.0 4.8 0.00 0.00 0.00 70 1010.4
20260504081010 16 233 1.6 8.0 0.00 0.00 0.00 70 1010.3
20260504080510 17 0 0.0 8.0 0.00 0.00 0.00 70 1010.4
20260504050510 17 248 3.2 9.7 0.00 0.00 0.00 64 1011.3
20260504045509 17 188 4.8 12.9 0.00 0.00 0.00 64 1011.4
20260504045007 17 221 3.2 12.9 0.00 0.00 0.00 64 1011.5
20260504044541 17 324 3.2 11.3 0.00 0.00 0.00 64 1011.5
20260504044011 17 92 3.2 12.9 0.00 0.00 0.00 64 1011.5
20260504043511 17 105 3.2 16.1 0.00 0.00 0.00 63 1011.6
20260504043028 17 68 1.6 16.1 0.00 0.00 0.00 63 1011.6
20260504042511 17 109 3.2 9.7 0.00 0.00 0.00 63 1011.7
20260504042009 17 213 3.2 9.7 0.00 0.00 0.00 62 1011.8
20260504041528 17 227 3.2 8.0 0.00 0.00 0.00 62 1011.7
20260504041011 17 205 1.6 8.0 0.00 0.00 0.00 62 1011.7
20260504040512 17 226 1.6 8.0 0.00 0.00 0.00 62 1011.8
20260504040038 17 143 3.2 8.0 0.00 0.00 0.00 62 1011.8
20260504035508 17 198 3.2 8.0 0.00 0.00 0.00 61 1011.9
20260504035012 17 70 1.6 8.0 0.00 0.00 0.00 62 1011.9
20260504034528 17 185 1.6 9.7 0.00 0.00 0.00 61 1012.1
20260504034010 17 136 3.2 11.3 0.00 0.00 0.00 61 1012.0
20260504033510 17 359 3.2 12.9 0.00 0.00 0.00 61 1012.0
20260504033031 17 254 3.2 12.9 0.00 0.00 0.00 61 1012.0
20260504032509 17 173 1.6 9.7 0.00 0.00 0.00 61 1012.0
20260504032014 17 340 3.2 8.0 0.00 0.00 0.00 61 1012.1
20260504031531 17 229 1.6 9.7 0.00 0.00 0.00 61 1012.0
20260504031010 17 221 3.2 9.7 0.00 0.00 0.00 61 1012.1
20260504030510 17 155 3.2 6.4 0.00 0.00 0.00 61 1012.2
20260504030028 17 247 3.2 6.4 0.00 0.00 0.00 61 1012.1
20260504025512 17 229 1.6 6.4 0.00 0.00 0.00 61 1012.2
20260504025013 17 221 1.6 6.4 0.00 0.00 0.00 61 1012.2
20260504024528 17 212 1.6 11.3 0.00 0.00 0.00 60 1012.1
20260504024012 17 158 3.2 11.3 0.00 0.00 0.00 60 1012.2
20260504023511 17 144 3.2 6.4 0.00 0.00 0.00 60 1012.1
20260504023031 17 251 1.6 8.0 0.00 0.00 0.00 60 1012.2
20260504022514 17 0 1.6 8.0 0.00 0.00 0.00 59 1012.1
20260504022010 17 131 1.6 8.0 0.00 0.00 0.00 59 1012.2
20260504021530 17 133 1.6 4.8 0.00 0.00 0.00 59 1012.2
20260504021010 17 0 0.0 4.8 0.00 0.00 0.00 59 1012.1
20260504020511 17 150 1.6 6.4 0.00 0.00 0.00 59 1012.1
20260504020030 17 210 1.6 6.4 0.00 0.00 0.00 59 1012.2
20260504015509 17 119 1.6 8.0 0.00 0.00 0.00 57 1012.1
20260504015008 17 129 1.6 8.0 0.00 0.00 0.00 57 1012.1
20260504014530 17 245 1.6 8.0 0.00 0.00 0.00 58 1012.1
20260504014010 17 145 0.0 4.8 0.00 0.00 0.00 57 1012.1
20260504013509 17 0 0.0 4.8 0.00 0.00 0.00 57 1012.0
20260504013035 17 154 1.6 6.4 0.00 0.00 0.00 56 1012.1
20260504012513 17 143 1.6 6.4 0.00 0.00 0.00 56 1012.1
20260504012010 17 107 1.6 4.8 0.00 0.00 0.00 55 1012.1
20260504011531 18 121 0.0 4.8 0.00 0.00 0.00 55 1012.2
20260504011012 18 0 0.0 4.8 0.00 0.00 0.00 53 1012.1
20260504010516 18 0 0.0 3.2 0.00 0.00 0.00 53 1012.2
20260504010028 18 148 0.0 6.4 0.00 0.00 0.00 53 1012.1
20260504005511 18 133 0.0 6.4 0.00 0.00 0.00 52 1012.0
20260504005009 18 115 1.6 6.4 0.00 0.00 0.00 51 1012.1
20260504004528 18 240 1.6 6.4 0.00 0.00 0.00 50 1012.1
20260504004010 19 0 3.2 11.3 0.00 0.00 0.00 51 1012.1
20260504003510 19 134 1.6 11.3 0.00 0.00 0.00 50 1011.9
20260504003029 19 208 1.6 9.7 0.00 0.00 0.00 50 1012.0
20260504002512 19 224 0.0 9.7 0.00 0.00 0.00 49 1012.1
20260504002010 19 203 3.2 9.7 0.00 0.00 0.00 48 1012.1
20260504001530 20 203 3.2 11.3 0.00 0.00 0.00 48 1012.1
20260504001012 20 124 1.6 11.3 0.00 0.00 0.00 48 1012.1
20260504000514 20 220 3.2 9.7 0.00 0.00 0.00 48 1012.1
20260504000029 20 129 3.2 11.3 0.00 0.00 0.00 48 1012.1
20260503235511 20 198 3.2 11.3 0.00 0.00 0.00 49 1012.0
20260503235011 20 63 1.6 8.0 0.00 0.00 0.00 48 1012.1
20260503234529 20 262 1.6 16.1 0.00 0.00 0.00 48 1012.1
20260503234011 20 234 4.8 16.1 0.00 0.00 0.00 48 1012.1
20260503233509 20 225 1.6 9.7 0.00 0.00 0.00 48 1012.1
20260503233035 20 235 4.8 8.0 0.00 0.00 0.00 48 1012.1
20260503232511 20 215 3.2 19.3 0.00 0.00 0.00 47 1012.2
20260503232015 20 171 4.8 19.3 0.00 0.00 0.00 47 1012.0
20260503231528 20 241 4.8 19.3 0.00 0.00 0.00 46 1012.1
20260503231009 20 122 3.2 17.7 0.00 0.00 0.00 47 1012.1
20260503230510 20 227 4.8 20.9 0.00 0.00 0.00 46 1012.3
20260503230029 20 126 3.2 20.9 0.00 0.00 0.00 46 1012.2
20260503225515 20 232 6.4 19.3 0.00 0.00 0.00 43 1012.2
20260503225011 20 266 8.0 17.7 0.00 0.00 0.00 44 1012.4
20260503224533 20 274 4.8 20.9 0.00 0.00 0.00 47 1012.4
20260503224016 20 212 4.8 20.9 0.00 0.00 0.00 45 1012.5
20260503223511 20 58 8.0 20.9 0.00 0.00 0.00 47 1012.5
20260503223028 20 25 4.8 11.3 0.00 0.00 0.00 46 1012.6
20260503222513 20 238 6.4 17.7 0.00 0.00 0.00 45 1012.7
20260503222009 21 281 6.4 20.9 0.00 0.00 0.00 46 1012.6
20260503221531 21 213 6.4 20.9 0.00 0.00 0.00 47 1012.7
20260503221016 21 254 3.2 12.9 0.00 0.00 0.00 47 1012.8
20260503220511 21 79 4.8 12.9 0.00 0.00 0.00 48 1013.0
20260503220031 21 114 4.8 16.1 0.00 0.00 0.00 47 1012.9
20260503215512 21 69 6.4 16.1 0.00 0.03 0.00 47 1013.1
20260503215016 21 131 6.4 14.5 0.00 0.03 0.00 47 1013.1
20260503214528 20 232 6.4 14.5 0.00 0.03 0.00 46 1013.2
20260503214011 21 231 6.4 16.1 0.00 0.03 0.00 44 1013.4
20260503213510 21 165 3.2 17.7 0.00 0.03 0.00 48 1013.5
20260503213039 21 235 4.8 17.7 0.00 0.03 0.00 47 1013.6
20260503212510 20 219 6.4 17.7 0.00 0.03 0.00 48 1013.7
20260503212013 20 218 3.2 14.5 0.00 0.03 0.00 47 1013.9
20260503211534 21 340 4.8 11.3 0.00 0.03 0.00 47 1013.8
20260503211010 21 249 4.8 11.3 0.00 0.03 0.00 46 1013.9
20260503210509 21 112 4.8 16.1 0.00 0.03 0.00 46 1014.1
20260503210027 21 108 4.8 16.1 0.00 0.03 0.00 49 1014.2
20260503205511 21 154 4.8 14.5 0.00 0.20 0.00 47 1014.4
20260503205012 21 124 4.8 14.5 0.00 0.20 0.00 49 1014.6
20260503204532 20 223 3.2 14.5 0.00 0.20 0.00 48 1014.6
20260503204013 20 193 6.4 14.5 0.00 0.20 0.00 48 1014.8
20260503203512 21 73 4.8 12.9 0.00 0.20 0.00 46 1015.0
20260503203030 21 234 1.6 16.1 0.00 0.20 0.00 51 1015.1
20260503202511 20 162 6.4 16.1 0.00 0.20 0.00 48 1015.2
20260503202011 20 148 8.0 17.7 0.00 0.20 0.00 48 1015.3
20260503201530 20 59 6.4 17.7 0.00 0.20 0.00 48 1015.5
20260503201010 20 159 4.8 16.1 0.00 0.20 0.00 47 1015.7
20260503200510 20 303 3.2 12.9 0.00 0.20 0.00 49 1015.9
20260503200032 20 201 4.8 12.9 0.00 0.20 0.00 47 1016.0
20260503195511 20 217 3.2 12.9 0.00 0.28 0.00 48 1016.2
20260503195012 20 240 3.2 12.9 0.00 0.28 0.00 46 1016.2
20260503194534 20 223 4.8 17.7 0.00 0.28 0.00 49 1016.4
20260503194010 20 231 4.8 17.7 0.00 0.28 0.00 51 1016.4
20260503193509 20 87 4.8 17.7 0.00 0.28 0.00 48 1016.5
20260503193029 20 259 6.4 11.3 0.00 0.28 0.00 50 1016.7
20260503192512 20 234 4.8 14.5 0.00 0.28 0.00 52 1016.8
20260503192011 20 230 3.2 14.5 0.00 0.28 0.00 50 1016.8
20260503191528 20 310 4.8 14.5 0.00 0.28 0.00 52 1017.2
20260503191009 20 214 6.4 12.9 0.00 0.28 0.00 48 1017.2
20260503190511 20 86 3.2 11.3 0.00 0.28 0.00 54 1017.3
20260503190043 20 315 4.8 16.1 0.00 0.28 0.00 47 1017.3
20260503185510 20 143 4.8 16.1 0.00 0.33 0.00 48 1017.3
20260503185012 20 84 4.8 20.9 0.00 0.33 0.00 51 1017.4
20260503184531 20 171 6.4 20.9 0.00 0.33 0.00 50 1017.4
20260503184009 20 242 3.2 20.9 0.00 0.33 0.00 48 1017.7
20260503183510 20 255 6.4 20.9 0.00 0.33 0.00 46 1017.8
20260503183030 20 132 6.4 20.9 0.00 0.33 0.00 50 1017.8
20260503182512 20 247 3.2 14.5 0.00 0.33 0.00 50 1018.1
20260503182012 20 126 4.8 14.5 0.00 0.33 0.00 49 1018.2
20260503181528 20 100 4.8 12.9 0.00 0.33 0.00 50 1018.1
20260503181009 20 236 4.8 17.7 0.00 0.33 0.00 50 1018.2
20260503180509 20 236 4.8 17.7 0.00 0.33 0.00 53 1018.2
20260503180038 20 250 4.8 14.5 0.00 0.33 0.00 52 1018.4
20260503175508 20 240 3.2 14.5 0.00 0.33 0.00 52 1018.5
20260503175010 19 119 3.2 14.5 0.00 0.33 0.00 55 1018.7
20260503174529 19 225 4.8 12.9 0.00 0.33 0.00 53 1018.9
20260503174007 19 75 4.8 12.9 0.00 0.33 0.00 54 1018.9
20260503173511 19 347 4.8 12.9 0.00 0.33 0.00 56 1019.1
20260503173034 18 255 3.2 16.1 0.00 0.33 0.00 55 1019.3
20260503172514 18 311 3.2 16.1 0.00 0.33 0.00 52 1019.4
20260503172010 18 210 6.4 16.1 0.00 0.33 0.00 55 1019.6
20260503171538 18 225 4.8 14.5 0.00 0.33 0.00 52 1019.7
20260503170509 18 342 6.4 16.1 0.00 0.33 0.00 50 1019.8
20260503151012 16 105 3.2 12.9 0.00 0.33 0.00 66 1020.5
20260503150511 16 245 4.8 9.7 0.00 0.33 0.00 66 1020.7